Powrót do katalogu

STARLINK-30243

AktywnyŁącznośćVLEO
NORAD 57648·PAYLOAD·🇺🇸 United States

Wystrzelony Aug 17, 2023 z Cape Canaveral Space Force Station

Loading…

Następne Przeloty (najbliższe 24 godziny)

TLE

ŚwieżeSource: CelesTrak SupGP

Epoka: Sep 14, 2026, 13:48 UTC

1 57648C 23122S   26257.57548611  .00031233  00000+0  11313-2 0  2578
2 57648  43.0022 105.8838 0001953 262.7128  85.1203 15.27562200    12

Śledź STARLINK-30243 w czasie rzeczywistym z AllMySat

Download on the App Store